Overview Statistics Trail Chart Weather Telemetry Raw packets
 

This is the latest recevied weather packets stored in our database for station/object WI0K. If no packets are shown the sender has not sent any weather packets the latest 10 day(s).

<< 31 32 33 34 35 36 37 >>
Time Temp. Humidity Pressure Rain* Wind** Luminosity Snow
1788451913 25.56° C 34% 1018.2 hPa 0 mm - 690 W/m² -
1788451612 25.56° C 36% 1018.2 hPa 0 mm - 679 W/m² -
1788451312 25.56° C 34% 1018.2 hPa 0 mm - 665 W/m² -
1788451011 25.56° C 34% 1018.2 hPa 0 mm - 650 W/m² -
1788450710 25° C 34% 1018.2 hPa 0 mm - 631 W/m² -
1788450410 24.44° C 36% 1018.2 hPa 0 mm - 618 W/m² -
1788450109 24.44° C 37% 1018.1 hPa 0 mm - 602 W/m² -
1788449808 24.44° C 40% 1018.2 hPa 0 mm - 586 W/m² -
1788449507 23.89° C 40% 1018.2 hPa 0 mm - 563 W/m² -
1788449206 23.89° C 42% 1018.3 hPa 0 mm - 544 W/m² -
1788448906 23.33° C 40% 1018.3 hPa 0 mm - 529 W/m² -
1788448605 23.33° C 44% 1018.3 hPa 0 mm - 513 W/m² -
1788448304 22.78° C 43% 1018.3 hPa 0 mm - 490 W/m² -
1788448003 22.78° C 41% 1018.4 hPa 0 mm - 476 W/m² -
1788447703 22.78° C 40% 1018.4 hPa 0 mm - 452 W/m² -
1788447402 22.78° C 41% 1018.5 hPa 0 mm - 438 W/m² -
1788447116 22.78° C 46% 1018.5 hPa 0 mm - 418 W/m² -
1788446800 23.33° C 42% 1018.5 hPa 0 mm - 400 W/m² -
1788446499 22.78° C 42% 1018.4 hPa 0 mm - 378 W/m² -
1788446199 22.22° C 43% 1018.5 hPa 0 mm - 360 W/m² -
1788445898 21.67° C 45% 1018.5 hPa 0 mm - 330 W/m² -
1788445616 21.11° C 46% 1018.5 hPa 0 mm - 322 W/m² -
1788445297 21.11° C 46% 1018.5 hPa 0 mm - 308 W/m² -
1788444996 20.56° C 49% 1018.5 hPa 0 mm - 284 W/m² -
1788444696 20.56° C 48% 1018.5 hPa 0 mm - 266 W/m² -

* Rain latest hour (hover to see other rain measurements)
** Current wind speed in m/s (hover to see current wind gust speed)